Wind_Speed
37 36 41 46 52 53 43 35 37 41 42 45 46 49 53 49 51 54 53 53 57 59 81 99 90 89 86 85 82 85 85 81 77 76 70 63 54 54 49 49 48 44 40 34
35 38 42 47 50 42 31 35 39 38 43 49 49 47 41 35 33 41 43 35 34 46 63 82 97 88 92 86 85 82 85 84 79 74 74 69 61 56 58 53 49 48 44 40
36 39 42 48 46 34 33 38 39 40 42 45 43 35 25 31 36 38 38 36 38 39 45 62 81 89 92 88 85 83 82 81 82 77 76 74 70 67 62 49 52 45 46 42
37 38 43 45 40 27 30 37 37 37 41 37 31 27 14 25 32 40 41 38 36 34 36 41 65 81 89 90 82 85 82 82 80 69 76 75 71 66 62 55 59 48 53 47
36 40 45 43 33 26 29 32 35 36 38 31 24 20 17 29 34 35 34 33 31 33 31 28 27 66 85 90 83 83 83 84 82 83 85 75 69 66 63 60 62 61 38 48
36 40 44 39 28 27 29 32 34 35 32 26 26 26 24 32 30 29 31 32 34 34 24 24 28 32 74 86 85 81 83 85 86 81 75 85 75 68 66 69 62 50 46 45
36 40 43 39 26 27 31 30 32 31 26 25 27 30 31 34 35 31 30 29 28 31 22 20 26 21 52 79 82 82 81 84 87 82 82 74 74 60 65 64 44 46 46 47
30 39 39 37 26 26 29 30 32 35 33 25 25 30 32 34 37 36 35 32 26 28 21 20 24 26 32 61 75 79 79 81 85 81 76 74 63 64 64 53 54 50 39 40
31 33 37 32 27 25 29 29 30 34 33 30 28 23 26 28 31 33 35 34 28 25 20 17 20 25 25 46 56 73 78 79 82 85 84 84 69 67 68 58 55 50 48 41
31 29 34 35 27 25 28 30 31 32 36 41 33 27 28 30 31 33 33 32 29 28 24 21 19 18 30 38 45 54 73 75 78 79 81 83 81 75 70 59 59 54 52 46
33 28 29 33 30 27 28 31 32 33 31 36 40 30 33 33 35 33 35 33 29 26 28 26 24 23 22 36 44 47 61 72 75 74 72 70 71 71 60 56 60 57 55 53
32 30 25 27 27 27 27 29 32 33 31 31 36 32 38 38 37 37 38 37 34 29 23 25 24 23 18 33 45 48 47 62 66 75 74 72 67 65 67 66 63 60 57 53
31 32 31 28 28 26 23 27 30 33 29 26 33 35 40 41 42 41 42 40 41 36 31 23 22 23 23 26 53 47 48 52 61 59 67 73 72 68 65 67 67 63 60 57
32 30 30 31 32 33 25 26 29 30 27 27 31 33 34 37 40 40 40 45 36 33 28 24 23 21 23 23 49 46 46 51 53 57 55 56 65 76 70 68 66 64 63 62
34 31 29 28 33 33 29 25 27 28 30 33 30 35 36 38 39 40 40 36 32 31 29 25 18 24 25 28 33 58 51 58 55 53 58 57 56 57 67 78 67 64 65 65
33 33 28 23 31 33 28 27 27 28 30 33 33 35 36 38 38 39 40 31 31 30 29 24 20 15 24 29 34 47 52 57 54 59 58 58 60 60 55 53 66 74 71 70
30 32 30 22 27 30 28 24 25 27 30 32 32 31 35 36 38 34 33 31 28 27 27 25 23 19 17 26 33 42 51 57 66 59 60 63 60 55 54 57 54 55 65 73
30 30 29 27 26 27 28 28 24 24 30 31 33 33 33 35 38 33 32 32 27 25 24 24 23 24 25 25 31 40 51 59 60 51 61 60 59 60 58 55 54 53 58 63
30 28 30 30 27 23 31 27 27 26 24 29 31 32 32 32 33 35 32 34 31 26 24 23 23 24 29 32 26 39 46 58 59 54 52 65 57 58 58 57 58 52 51 58
28 26 26 28 29 26 29 27 24 23 23 25 26 30 30 31 29 32 31 30 32 26 26 24 26 28 29 31 23 25 45 50 56 55 53 51 50 58 55 55 55 55 53 50
27 26 22 25 28 24 27 27 28 26 24 25 26 27 29 29 31 33 32 32 34 25 25 28 28 29 31 30 23 16 35 46 51 52 51 49 49 49 46 52 51 58 57 52
27 27 22 22 24 25 26 27 28 29 25 25 27 27 27 27 30 35 34 33 31 27 23 26 29 29 28 29 30 16 17 46 44 47 47 47 46 48 50 52 57 52 50 52
28 25 20 20 22 22 25 26 27 28 26 25 27 27 25 27 28 32 33 30 30 27 21 24 28 26 28 26 25 17 6 34 44 42 36 36 38 35 39 43 37 39 44 48
27 25 19 19 21 20 23 24 25 27 25 24 25 26 27 29 27 30 32 29 28 29 23 21 25 25 24 24 20 20 6 26 37 42 37 34 33 31 33 33 31 30 32 39
26 26 21 15 22 18 21 22 24 26 27 25 25 25 26 28 26 28 30 28 28 28 22 22 18 19 19 22 13 12 11 12 34 39 33 34 35 35 36 33 30 26 27 29
23 30 20 17 20 19 20 22 23 23 26 24 25 24 24 26 25 27 28 27 25 28 23 16 19 14 13 17 11 9 9 5 25 26 33 37 35 33 31 32 30 30 27 24
Wind_Direction
302 306 306 310 312 315 312 312 312 311 309 311 308 306 297 299 299 294 293 290 274 256 238 229 222 224 228 222 223 219 222 227 232 239 239 237 234 231 227 225 227 226 227 223
300 304 308 314 317 314 303 308 309 311 311 313 312 308 308 301 308 311 305 293 296 269 246 234 225 221 226 222 220 219 219 222 228 232 241 240 237 232 227 227 226 226 226 230
300 305 314 316 319 310 303 309 310 312 316 318 321 325 310 314 315 319 312 301 303 293 263 244 228 218 221 223 218 218 217 217 223 229 234 237 239 239 237 224 231 231 229 227
303 309 317 323 319 310 303 308 310 314 317 321 330 355 334 292 299 306 309 299 298 297 281 259 234 218 217 220 215 215 215 215 218 225 228 233 239 243 247 239 236 232 232 231
306 313 318 326 318 309 312 309 313 320 324 325 327 332 326 307 311 306 310 303 302 308 295 250 246 224 213 218 214 212 214 212 215 222 223 227 232 238 234 231 245 237 225 237
307 312 318 326 318 310 315 313 320 323 321 324 316 312 321 311 313 314 315 304 308 317 298 252 237 235 215 214 215 211 213 212 216 219 227 229 222 226 236 237 236 251 257 247
312 315 323 327 318 311 311 309 315 322 321 312 309 308 307 311 314 319 322 320 315 323 324 273 235 225 223 214 216 212 211 213 216 220 221 220 216 222 234 237 231 236 238 240
321 319 325 327 316 304 307 311 318 324 326 329 312 310 320 320 321 317 322 319 314 318 320 293 238 234 230 220 214 214 212 212 214 221 222 230 210 222 225 225 235 233 229 234
325 324 325 328 318 304 311 314 316 321 324 327 329 328 329 335 337 330 318 318 315 315 306 309 251 248 240 218 217 214 214 211 213 218 219 222 225 222 224 225 233 230 229 237
323 326 326 331 322 306 306 313 318 319 324 327 336 339 324 332 333 333 327 308 310 304 305 289 275 274 249 214 214 218 214 215 212 214 220 221 224 225 220 223 228 229 231 234
319 326 326 329 323 311 305 306 312 314 318 324 328 347 334 333 331 330 331 326 309 306 296 287 274 248 252 216 208 217 217 216 216 217 216 218 220 225 217 221 227 229 231 236
318 323 327 325 322 313 299 301 303 313 314 321 323 341 331 334 333 333 334 333 323 305 291 290 271 257 250 223 208 214 214 217 218 220 217 219 218 222 228 233 236 237 237 239
318 322 326 325 320 316 299 299 301 309 310 311 320 333 328 333 334 334 333 332 327 313 300 278 274 256 246 228 211 217 211 217 218 218 224 221 219 220 227 233 238 240 241 242
315 319 326 325 323 331 320 300 301 309 308 304 315 325 325 326 330 333 333 333 332 330 323 302 265 258 237 222 216 218 219 211 219 217 219 221 226 225 223 229 235 239 243 245
312 317 324 324 320 325 323 301 300 310 308 304 308 315 324 329 333 336 334 334 339 339 336 326 300 259 245 240 227 217 220 226 216 214 215 216 221 225 231 227 229 238 242 246
310 313 321 322 317 321 320 304 299 299 303 305 311 312 320 329 334 335 331 334 338 346 348 343 330 297 254 242 234 226 233 218 218 219 215 221 225 221 223 221 231 232 239 244
303 309 316 324 315 316 316 303 293 294 300 304 313 313 317 328 329 330 333 334 339 344 347 343 340 332 305 252 239 227 228 216 218 221 218 215 214 219 226 225 222 227 236 243
302 308 314 319 318 318 311 312 300 293 294 302 311 316 317 327 329 332 334 341 337 336 340 338 336 336 328 302 250 234 224 227 224 220 225 224 223 229 228 232 237 229 229 234
297 306 309 313 317 319 316 319 307 297 297 300 306 312 311 322 330 331 331 336 336 330 331 339 339 333 326 324 277 233 227 223 222 225 225 221 221 231 233 233 231 236 229 226
291 298 306 310 314 322 316 321 316 303 292 297 302 309 304 316 326 333 329 328 331 323 321 328 334 333 337 338 310 243 222 220 216 216 223 222 223 226 224 227 228 232 231 238
284 292 301 305 310 317 316 323 322 314 310 298 303 308 304 316 325 332 337 337 336 333 316 326 330 331 337 339 335 282 224 213 211 211 214 212 215 220 224 229 230 229 234 239
278 287 294 298 305 311 318 320 323 318 308 300 304 309 305 316 330 332 338 339 339 336 329 328 333 331 342 348 355 344 227 207 204 207 209 213 215 218 222 226 231 231 234 235
268 279 287 291 299 308 315 319 322 321 317 303 304 310 307 313 327 329 334 340 344 342 334 332 334 336 343 354 5 317 239 200 197 199 201 204 205 211 219 222 225 227 229 232
268 270 276 282 289 307 311 317 321 317 313 300 299 303 306 310 321 323 330 337 340 347 339 334 332 332 337 352 6 4 351 199 196 196 203 208 207 210 212 221 227 227 226 227
260 264 266 277 284 300 307 312 315 314 313 301 295 300 302 307 312 318 326 337 346 351 345 345 342 346 347 345 355 13 358 210 201 201 205 203 207 212 218 214 215 207 210 211
250 250 256 270 281 294 300 305 312 313 310 301 291 297 300 302 308 313 324 335 340 345 347 348 352 346 328 342 350 1 358 331 203 190 212 216 210 213 211 212 210 211 215 219
Height
5805 5802 5796 5791 5785 5777 5769 5765 5761 5757 5750 5746 5739 5727 5717 5709 5705 5698 5695 5687 5684 5686 5691 5704 5715 5724 5732 5746 5761 5774 5782 5793 5800 5807 5820 5831 5842 5849 5853 5857 5861 5865 5869 5872
5799 5793 5789 5782 5774 5767 5762 5759 5753 5749 5742 5732 5724 5720 5708 5700 5693 5687 5682 5676 5669 5665 5666 5673 5692 5707 5710 5723 5740 5754 5768 5777 5789 5796 5806 5816 5826 5833 5839 5845 5851 5855 5861 5865
5790 5786 5780 5773 5765 5758 5754 5750 5746 5739 5733 5723 5712 5708 5702 5694 5688 5680 5671 5664 5657 5651 5649 5649 5662 5683 5692 5703 5720 5736 5750 5763 5775 5784 5791 5800 5810 5818 5826 5835 5844 5850 5853 5857
5784 5778 5772 5764 5756 5751 5748 5743 5738 5733 5724 5716 5706 5701 5696 5689 5681 5673 5663 5655 5648 5641 5636 5635 5642 5658 5675 5689 5701 5718 5734 5747 5759 5767 5776 5787 5800 5812 5820 5828 5830 5837 5845 5848
5775 5769 5762 5756 5749 5744 5742 5737 5731 5724 5715 5706 5699 5693 5689 5681 5674 5665 5655 5647 5640 5632 5628 5626 5629 5640 5656 5673 5688 5703 5718 5732 5742 5752 5762 5773 5787 5798 5804 5807 5819 5825 5830 5838
5767 5761 5755 5749 5742 5738 5734 5729 5723 5717 5710 5702 5693 5686 5684 5673 5666 5659 5648 5640 5632 5625 5619 5619 5621 5628 5641 5658 5675 5690 5705 5717 5725 5739 5750 5760 5770 5782 5791 5796 5804 5811 5820 5828
5760 5753 5746 5741 5737 5731 5728 5725 5719 5714 5706 5698 5688 5680 5673 5665 5658 5652 5644 5636 5628 5621 5615 5615 5618 5624 5632 5644 5661 5677 5690 5704 5714 5727 5738 5743 5758 5770 5778 5785 5796 5803 5810 5815
5754 5746 5740 5735 5731 5728 5723 5718 5712 5704 5698 5694 5688 5676 5668 5659 5652 5645 5638 5631 5624 5619 5615 5613 5616 5620 5625 5634 5647 5663 5678 5691 5702 5711 5723 5727 5739 5759 5768 5776 5787 5795 5800 5803
5747 5741 5734 5730 5725 5722 5716 5711 5706 5699 5694 5688 5682 5674 5665 5657 5649 5640 5633 5627 5621 5616 5614 5611 5613 5615 5617 5624 5634 5649 5663 5676 5690 5702 5713 5722 5731 5744 5755 5763 5775 5783 5788 5794
5740 5736 5728 5723 5719 5715 5711 5706 5700 5695 5687 5677 5676 5669 5661 5653 5646 5640 5632 5623 5617 5612 5609 5609 5610 5613 5615 5618 5625 5635 5648 5662 5676 5688 5701 5714 5724 5734 5743 5750 5760 5767 5776 5782
5731 5729 5724 5716 5712 5707 5704 5699 5694 5690 5686 5676 5667 5666 5656 5649 5642 5636 5628 5620 5613 5608 5604 5602 5603 5606 5609 5612 5618 5626 5636 5648 5662 5675 5688 5701 5713 5722 5731 5740 5749 5757 5764 5770
5724 5721 5718 5713 5707 5702 5698 5693 5689 5684 5679 5673 5665 5662 5650 5643 5637 5630 5622 5615 5608 5602 5600 5596 5594 5597 5600 5604 5609 5617 5626 5637 5648 5660 5672 5687 5699 5709 5720 5731 5739 5748 5755 5761
5718 5713 5709 5706 5702 5698 5693 5687 5683 5678 5672 5670 5661 5657 5645 5638 5631 5624 5616 5610 5603 5596 5591 5590 5589 5589 5592 5594 5602 5609 5616 5625 5637 5647 5660 5673 5686 5697 5706 5717 5726 5735 5743 5750
5710 5708 5704 5698 5692 5688 5685 5681 5676 5672 5667 5663 5658 5652 5647 5639 5630 5622 5614 5606 5597 5590 5585 5582 5583 5584 5586 5588 5595 5600 5606 5616 5625 5637 5647 5658 5670 5682 5693 5704 5713 5720 5729 5735
5703 5702 5698 5693 5686 5682 5679 5675 5670 5665 5661 5656 5655 5647 5641 5633 5625 5616 5609 5602 5594 5588 5582 5577 5576 5577 5579 5581 5584 5592 5598 5606 5615 5625 5636 5647 5658 5668 5678 5691 5702 5710 5717 5724
5696 5693 5692 5690 5681 5676 5673 5667 5664 5660 5656 5652 5648 5644 5637 5630 5621 5614 5607 5600 5592 5585 5579 5574 5570 5569 5570 5572 5574 5580 5585 5596 5603 5614 5624 5634 5646 5656 5665 5676 5687 5700 5705 5712
5690 5686 5683 5685 5678 5672 5668 5662 5659 5656 5650 5647 5644 5639 5634 5628 5620 5613 5605 5597 5590 5583 5579 5575 5570 5566 5565 5564 5564 5568 5575 5582 5593 5601 5611 5623 5634 5644 5654 5664 5675 5685 5695 5699
5682 5679 5676 5675 5672 5669 5663 5657 5652 5651 5645 5642 5637 5634 5629 5625 5617 5609 5601 5594 5587 5581 5577 5573 5568 5563 5560 5557 5554 5555 5562 5571 5580 5591 5601 5610 5621 5632 5641 5650 5661 5671 5678 5686
5674 5673 5669 5668 5665 5664 5656 5651 5646 5643 5642 5637 5633 5629 5625 5622 5616 5606 5598 5590 5584 5579 5574 5570 5565 5560 5553 5545 5540 5542 5547 5555 5567 5578 5587 5600 5610 5621 5630 5638 5646 5654 5663 5670
5666 5665 5665 5661 5657 5655 5650 5646 5641 5637 5635 5631 5628 5625 5620 5617 5614 5607 5597 5589 5582 5574 5570 5566 5561 5555 5547 5539 5530 5528 5534 5542 5554 5564 5575 5587 5598 5608 5618 5627 5634 5642 5649 5656
5657 5657 5658 5654 5650 5649 5644 5639 5635 5631 5630 5624 5621 5619 5615 5612 5607 5602 5594 5584 5577 5571 5566 5561 5556 5551 5542 5534 5525 5520 5521 5532 5544 5555 5567 5578 5588 5598 5606 5614 5619 5629 5637 5644
5650 5649 5650 5648 5645 5642 5638 5634 5631 5626 5621 5619 5616 5613 5610 5607 5602 5597 5590 5582 5575 5568 5562 5557 5553 5547 5540 5530 5520 5515 5513 5523 5537 5549 5561 5571 5579 5588 5597 5604 5612 5619 5627 5633
5641 5642 5643 5642 5639 5635 5631 5627 5624 5620 5616 5613 5611 5608 5605 5603 5599 5594 5588 5581 5573 5566 5560 5554 5550 5544 5537 5530 5523 5517 5513 5519 5533 5544 5554 5564 5573 5581 5588 5595 5602 5609 5617 5623
5631 5632 5634 5633 5631 5628 5625 5622 5618 5615 5611 5608 5606 5603 5600 5599 5596 5592 5586 5578 5571 5565 5558 5553 5547 5542 5538 5532 5526 5522 5523 5523 5532 5542 5551 5557 5566 5573 5581 5588 5595 5601 5605 5611
5623 5623 5625 5626 5623 5622 5619 5616 5613 5610 5606 5603 5600 5598 5596 5594 5592 5589 5584 5577 5569 5563 5557 5552 5546 5542 5538 5532 5529 5526 5525 5527 5530 5539 5547 5553 5561 5569 5574 5581 5587 5592 5596 5601
5614 5613 5617 5617 5615 5614 5612 5610 5607 5604 5600 5597 5594 5593 5592 5590 5588 5586 5581 5575 5568 5562 5556 5552 5546 5542 5539 5534 5530 5529 5527 5526 5529 5537 5543 5548 5555 5562 5569 5575 5580 5585 5589 5593